Regional Weather Roundup
Issued by NWS Memphis, TN

Home | Current Version | Previous Version | Text Only | Print | Product List | Glossary On
Versions: 1 2 3 4 5 6 7 8 9 10 11 12 13 14 15 16 17 18 19 20 21 22 23 24 25 26 27 28 29 30 31 32 33 34 35 36 37 38 39 40 41 42 43 44 45 46 47 48 49 50
000
ASUS44 KMEG 092210
RWRMEG
MEMPHIS CWA HOURLY WEATHER ROUNDUP
NATIONAL WEATHER SERVICE MEMPHIS TN
400 PM CST FRI DEC 09 2016

...WEST TENNESSEE...

CITY           SKY/WX    TMP DP  RH WIND       PRES   REMARKS
MEMPHIS INTL   PTCLDY    36  18  48 N8        30.57S WCI  30
NWS MEMPHIS      N/A     38 N/A N/A MISG        N/A
JACKSON        CLEAR     35  19  52 NW7       30.57S WCI  29
BOLIVAR        CLEAR     36  18  48 CALM      30.56R
LEXINGTON      CLEAR     34  14  44 VRB3      30.54F
DYERSBURG      CLEAR     34  16  47 N7        30.58S WCI  28
UNION CITY     CLEAR     30  16  55 CALM      30.57S
PARIS          CLEAR     28  14  54 CALM      30.56S
HUNTINGDON     CLEAR     34  18  51 VRB5      30.55F WCI  30


...EASTERN ARKANSAS...

CITY           SKY/WX    TMP DP  RH WIND       PRES   REMARKS
JONESBORO      CLEAR     34  19  54 CALM      30.59S
BATESVILLE     CLEAR     37  12  35 NW3       30.58R
NEWPORT        CLEAR     32  19  58 NE6       30.60S WCI  26
WALNUT RIDGE   CLEAR     32  16  51 E5        30.59S WCI  27
BLYTHEVILLE    CLEAR     35  19  52 N7        30.60F WCI  29
SEARCY         CLEAR     38  16  40 SE6       30.59F WCI  33
STUTTGART      CLEAR     36  18  48 CALM      30.59F
PINE BLUFF     CLEAR     35  22  58 VRB3      30.59F
MONTICELLO     CLEAR     38  21  50 NE7       30.58S WCI  33


...NORTH MISSISSIPPI...

CITY           SKY/WX    TMP DP  RH WIND       PRES   REMARKS
TUPELO         CLEAR     39  14  36 N8        30.54F WCI  33
OXFORD         CLEAR     37  14  38 N5        30.57S WCI  34
BATESVILLE     CLEAR     39  16  40 NW3       30.58R
OLIVE BRANCH   CLEAR    N/A N/A N/A N6        30.56R
TUNICA         CLEAR     34  19  55 N7        30.60S WCI  28
CLARKSDALE     CLEAR     36  21  55 N6        30.59S WCI  31
CORINTH        CLEAR     37  16  41 N7        30.55S WCI  32
GREENWOOD      CLEAR     40  19  43 NW6       30.57S
COLUMBUS       CLEAR     40  20  43 NW9       30.53S WCI  34
STARKVILLE     CLEAR     39  18  41 N7        30.55S WCI  34
GOLDEN TRIANGL CLEAR     41  18  38 N9        30.50S


...SOUTHEAST MISSOURI...

CITY           SKY/WX    TMP DP  RH WIND       PRES   REMARKS
KENNETT        CLEAR     34  18  51 CALM      30.59S
WEST PLAINS    CLEAR     33  11  39 S5        30.53F WCI  29
POPLAR BLUFF   CLEAR     32  17  54 SE3       30.58F
CAPE GIRARDEAU CLEAR     31  15  52 SW3       30.59F


...NORTHWEST ALABAMA...

CITY           SKY/WX    TMP DP  RH WIND       PRES   REMARKS
MUSCLE SHOALS  CLEAR     39  17  41 VRB6      30.54S WCI  35


...MIDDLE TENNESSEE...

CITY           SKY/WX    TMP DP  RH WIND       PRES   REMARKS
NASHVILLE      CLEAR     35  14  42 N10       30.55S WCI  27
CLARKSVILLE    CLEAR     32  16  51 N10       30.57S WCI  24
COLUMBIA       CLEAR     34  16  47 N5        30.51F WCI  30


...WESTERN KENTUCKY...

CITY           SKY/WX    TMP DP  RH WIND       PRES   REMARKS
PADUCAH        CLEAR     32  12  43 NW7       30.58S WCI  26
FORT CAMPBELL  CLEAR     31  16  53 N6        30.56S WCI  25


...CENTRAL ARKANSAS...

CITY           SKY/WX    TMP DP  RH WIND       PRES   REMARKS
LITTLE ROCK    PTCLDY    37  14  38 CALM      30.58S


SKY/WX REPORTED AS FAIR MEANS FEW OR NO CLOUDS BELOW
12 THOUSAND FEET.




USA.gov is the U.S. government's official web portal to all federal, state and local government web resources and services.